Weather History for Luqa, Malta

Change the Weather History Date:

Monday, May 13, 2013

  Actual Average Record
Temperature  
Mean Temperature 64 °F -  
Max Temperature 69 °F 77 °F 87 °F (1999)
Min Temperature 59 °F 62 °F 57 °F (1997)
Degree Days  
Heating Degree Days 1    
Growing Degree Days 14 (Base 50)    
Moisture  
Dew Point 54 °F    
Average Humidity 69    
Maximum Humidity 88    
Minimum Humidity 42    
Precipitation  
Precipitation 0.00 in 0.01 in - ()
Sea Level Pressure  
Sea Level Pressure 30.00 in    
Wind  
Wind Speed 18 mph ()    
Max Wind Speed 29 mph    
Max Gust Speed 33 mph    
Visibility 6.6 miles    
Events      
Averages and records for this station are not official NWS values.
T = Trace of Precipitation, MM = Missing Value Source: Averaged Metar Reports

Daily Weather History Graph

Daily Weather History Graph

Search for Another Location

Airport:

Trip Planner

Search our weather history database for the weather conditions in past years. The results will help you decide how hot, cold, wet, or windy it might be!

Date:

Astronomy

May. 13, 2013 Rise Set
Actual Time 5:58 AM CEST 7:59 PM CEST
Civil Twilight 5:29 AM CEST 8:27 PM CEST
Nautical Twilight 4:55 AM CEST 9:01 PM CEST
Astronomical Twilight 4:18 AM CEST 9:39 PM CEST
Moon 8:30 AM CEST (5/13) 10:56 PM CEST (5/13)
Length of Visible Light 14h 57m
Length of Day
14h 00m
Waxing Crescent, 10% of the Moon is Illuminated
May 13
Waxing Crescent
May 18
First Quarter
May 25
Full
May 31
Last Quarter
Jun 8
New

Hourly Weather History & Observations

Time (CEST) Temp. Dew Point Humidity Pressure Visibility Wind Dir Wind Speed Gust Speed Precip Events Conditions
12:15 AM 60.8 °F 55.4 °F 82% 30.01 in - NNW 17.3 mph - N/A   Clear
12:45 AM 60.8 °F 55.4 °F 82% 30.01 in - NNW 15.0 mph - N/A   Clear
1:15 AM 60.8 °F 55.4 °F 82% 30.01 in - NNW 16.1 mph - N/A   Clear
1:45 AM 60.8 °F 55.4 °F 82% 30.01 in - NNW 12.7 mph - N/A   Clear
2:00 AM 60 °F 55 °F 78% 30.01 in 7 mi NNW 13.8 mph - -  
2:15 AM 60.8 °F 55.4 °F 82% 30.01 in - NNW 16.1 mph - N/A   Clear
2:45 AM 60.8 °F 55.4 °F 82% 30.01 in - NNW 18.4 mph - N/A   Clear
3:15 AM 59.0 °F 55.4 °F 88% 29.98 in - NNW 13.8 mph - N/A   Clear
3:45 AM 59.0 °F 53.6 °F 82% 29.98 in 6.2 mi NNW 13.8 mph - N/A   Mostly Cloudy
4:15 AM 60.8 °F 53.6 °F 77% 29.98 in 6.2 mi NW 12.7 mph - N/A   Mostly Cloudy
4:45 AM 60.8 °F 53.6 °F 77% 29.98 in 6.2 mi NW 16.1 mph - N/A   Partly Cloudy
5:00 AM 60 °F 54 °F 74% 29.99 in 7 mi NW 15.0 mph - -   Scattered Clouds
5:15 AM 59.0 °F 53.6 °F 82% 29.98 in 6.2 mi NW 16.1 mph - N/A   Partly Cloudy
5:45 AM 60.8 °F 53.6 °F 77% 29.98 in 6.2 mi NW 17.3 mph - N/A   Partly Cloudy
6:15 AM 59.0 °F 53.6 °F 82% 29.98 in 6.2 mi NNW 20.7 mph - N/A   Partly Cloudy
6:45 AM 60.8 °F 53.6 °F 77% 29.98 in 6.2 mi NNW 18.4 mph - N/A   Partly Cloudy
7:15 AM 62.6 °F 51.8 °F 68% 30.01 in 6.2 mi NNW 17.3 mph - N/A   Partly Cloudy
7:45 AM 62.6 °F 51.8 °F 68% 30.01 in 6.2 mi NW 19.6 mph 33.4 mph N/A   Partly Cloudy
8:00 AM 64 °F 52 °F 56% 30.01 in 7 mi NW 19.6 mph - -  
8:15 AM 64.4 °F 51.8 °F 64% 30.01 in 6.2 mi NW 19.6 mph - N/A   Partly Cloudy
8:45 AM 64.4 °F 51.8 °F 64% 30.01 in 6.2 mi NW 21.9 mph - N/A   Partly Cloudy
9:15 AM 64.4 °F 51.8 °F 64% 30.01 in 6.2 mi NW 20.7 mph - N/A   Partly Cloudy
9:45 AM 66.2 °F 51.8 °F 60% 30.01 in 6.2 mi NW 25.3 mph - N/A   Partly Cloudy
10:15 AM 68.0 °F 51.8 °F 56% 30.01 in 6.2 mi NNW 26.5 mph - N/A   Partly Cloudy
10:45 AM 68.0 °F 51.8 °F 56% 30.01 in 6.2 mi NW 26.5 mph - N/A   Partly Cloudy
11:00 AM 68 °F 52 °F 46% 30.02 in 9 mi NW 25.3 mph - -   Scattered Clouds
11:15 AM 68.0 °F 51.8 °F 56% 30.01 in 6.2 mi NW 27.6 mph - N/A   Partly Cloudy
11:45 AM 68.0 °F 51.8 °F 56% 30.04 in 6.2 mi NW 26.5 mph - N/A   Scattered Clouds
12:15 PM 68.0 °F 53.6 °F 60% 30.01 in 6.2 mi NW 26.5 mph - N/A   Scattered Clouds
12:45 PM 69.8 °F 53.6 °F 56% 30.01 in 6.2 mi NW 24.2 mph - N/A   Scattered Clouds
1:15 PM 69.8 °F 53.6 °F 56% 30.01 in 6.2 mi WNW 26.5 mph - N/A   Partly Cloudy
1:45 PM 69.8 °F 50.0 °F 49% 30.01 in 6.2 mi NW 27.6 mph - N/A   Partly Cloudy
2:00 PM 69 °F 51 °F 42% 30.00 in 9 mi NW 26.5 mph - -  
2:15 PM 69.8 °F 50.0 °F 49% 30.01 in 6.2 mi NW 25.3 mph - N/A   Partly Cloudy
2:45 PM 69.8 °F 51.8 °F 53% 29.98 in - NW 26.5 mph - N/A   Clear
3:15 PM 68.0 °F 53.6 °F 60% 29.98 in 6.2 mi NW 25.3 mph - N/A   Partly Cloudy
3:45 PM 68.0 °F 53.6 °F 60% 29.98 in 6.2 mi NW 26.5 mph - N/A   Partly Cloudy
4:15 PM 68.0 °F 53.6 °F 60% 29.98 in 6.2 mi NW 28.8 mph - N/A   Partly Cloudy
4:45 PM 68.0 °F 53.6 °F 60% 29.98 in 6.2 mi NNW 25.3 mph - N/A   Partly Cloudy
5:00 PM 69 °F 54 °F 49% 29.97 in 9 mi NW 24.2 mph - -   Scattered Clouds
5:15 PM 68.0 °F 53.6 °F 60% 29.98 in 6.2 mi NW 25.3 mph - N/A   Partly Cloudy
5:45 PM 68.0 °F 53.6 °F 60% 29.98 in - NW 21.9 mph - N/A   Clear
6:15 PM 66.2 °F 53.6 °F 64% 29.98 in 6.2 mi NW 24.2 mph - N/A   Partly Cloudy
6:45 PM 64.4 °F 53.6 °F 68% 29.98 in - NW 23.0 mph - N/A   Clear
7:15 PM 64.4 °F 53.6 °F 68% 29.98 in - NW 20.7 mph - N/A   Clear
7:45 PM 62.6 °F 53.6 °F 72% 29.98 in - NW 19.6 mph - N/A   Clear
8:00 PM 63 °F 54 °F 66% 30.00 in 6 mi NW 19.6 mph - -  
8:15 PM 62.6 °F 55.4 °F 77% 29.98 in 6.2 mi NW 19.6 mph - N/A   Partly Cloudy
8:45 PM 62.6 °F 55.4 °F 77% 29.98 in 6.2 mi NW 19.6 mph - N/A   Partly Cloudy
9:15 PM 60.8 °F 55.4 °F 82% 30.01 in - NW 16.1 mph - N/A   Clear
9:45 PM 60.8 °F 55.4 °F 82% 30.01 in - NW 17.3 mph - N/A   Clear
10:15 PM 60.8 °F 55.4 °F 82% 30.01 in - NW 17.3 mph - N/A   Clear
10:45 PM 60.8 °F 55.4 °F 82% 30.01 in - NW 15.0 mph - N/A   Clear
11:00 PM 61 °F 56 °F 78% 30.03 in 9 mi NNW 15.0 mph - -  
11:15 PM 60.8 °F 55.4 °F 82% 30.01 in - NNW 15.0 mph - N/A   Clear
11:45 PM 60.8 °F 57.2 °F 88% 30.01 in - NNW 16.1 mph - N/A   Clear